Flag for Reunion (French) Weather past 2 weeks in Saint-Pierre, Reunion (French)

Now
73 °F

Passing clouds.


Feels Like: 76 °F
Forecast: 71 / 74 °F
Wind: 24 mph from Southeast

Location: Saint Airport-Pierre

Current Time: Jul 24, 2014 at 6:00:03 PM

Latest Report: Jul 24, 2014 at 5:30 PM


Visibility: N/A

Pressure: 30.15 "Hg

Humidity: 69%

Dew point: 63 °F

Location of Saint-PierreLocation

Historic Weather in Saint-Pierre — Graph

°F

Saint-Pierre temperature yesterday

Maximum temperature yesterday: 79 °F (at 1:30 PM)
Minimum temperature yesterday: 68 °F (at 4:30 AM)
Average temperature yesterday: 73 °F

Past Weeks' High & Low Weather Summary

 TemperatureHumidityPressure
High81 °F (Jul 20, 10:30 AM)94% (Jul 16, 11:00 PM)30.30 "Hg (Jul 16, 11:00 PM)
Low63 °F (Jul 12, 3:30 AM)41% (Jul 11, 9:30 AM)29.92 "Hg (Jul 9, 5:00 PM)
Average71 °F67%30.17 "Hg
* Reported Jul 9 5:00 PM — Jul 24 4:30 PM, Saint-Pierre, Weather by CustomWeather, © 2014

Note: Actual official high and low records may vary slightly from our data, if they occured in-between our weather recording intervals... More about our weather records

Advertising

Saint-Pierre weather history for previous 24 hours

 ConditionsComfort  
Time TempWeatherWind HumidityBarometerVisibility
4:30 PM
Jul 24
73 °FOvercast.28 mph65%30.15 "HgN/A
4:00 PM75 °FScattered clouds.31 mph61%30.15 "HgN/A
3:30 PM75 °FPassing clouds.30 mph61%30.15 "HgN/A
3:00 PM77 °FPartly sunny.30 mph57%30.15 "HgN/A
2:30 PM77 °FPassing clouds.31 mph57%30.12 "HgN/A
2:00 PM77 °FWarm.31 mph57%30.15 "HgN/A
1:30 PM77 °FWarm.32 mph57%30.15 "HgN/A
1:00 PM77 °FWarm.32 mph57%30.15 "HgN/A
12:30 PM77 °FPassing clouds.31 mph61%30.18 "HgN/A
12:00 PM77 °FWarm.32 mph61%30.18 "HgN/A
11:30 AM77 °FPassing clouds.31 mph61%30.18 "HgN/A
11:00 AM77 °FScattered clouds.31 mph61%30.21 "HgN/A
10:30 AM77 °FPassing clouds.26 mph61%30.21 "HgN/A
10:00 AM77 °FPassing clouds.26 mph61%30.21 "HgN/A
9:30 AM75 °FPassing clouds.23 mph65%30.21 "HgN/A
9:00 AM75 °FPartly sunny.20 mph69%30.21 "HgN/A
8:30 AM72 °FPassing clouds.23 mph73%30.21 "HgN/A
8:00 AM72 °FPassing clouds.17 mph73%30.18 "HgN/A
7:30 AM72 °FMild.17 mph69%30.18 "HgN/A
7:00 AM70 °FPassing clouds.15 mph73%30.18 "HgN/A
6:30 AM70 °FPassing clouds.17 mph73%30.18 "HgN/A
6:00 AM70 °FPassing clouds.17 mph78%30.15 "HgN/A
5:30 AM72 °FPassing clouds.23 mph73%30.15 "HgN/A
4:30 AM70 °FMild.18 mph73%30.15 "HgN/A
4:00 AM70 °FPassing clouds.18 mph73%30.15 "HgN/A
3:30 AM70 °FPassing clouds.16 mph73%30.15 "HgN/A
3:00 AM70 °FPassing clouds.21 mph78%30.15 "HgN/A
2:30 AM70 °FPassing clouds.24 mph83%30.15 "HgN/A
2:00 AM70 °FMild.10 mph69%30.15 "HgN/A
1:30 AM70 °FMild.13 mph69%30.15 "HgN/A
12:30 AM70 °FMild.13 mph73%30.18 "HgN/A
12:00 AM72 °FMild.17 mph69%30.18 "HgN/A
11:30 PM
Jul 23
72 °FMild.21 mph69%30.18 "HgN/A
11:00 PM70 °FMild.15 mph73%30.18 "HgN/A
10:30 PM72 °FMild.18 mph69%30.18 "HgN/A
10:00 PM72 °FMild.18 mph69%30.18 "HgN/A
9:30 PM72 °FMild.20 mph69%30.18 "HgN/A
9:00 PM72 °FMild.18 mph69%30.18 "HgN/A
8:30 PM72 °FMild.16 mph69%30.18 "HgN/A
8:00 PM72 °FMild.21 mph69%30.15 "HgN/A
7:30 PM72 °FPassing clouds.25 mph73%30.15 "HgN/A
7:00 PM73 °FPassing clouds.23 mph69%30.15 "HgN/A
6:30 PM73 °FPassing clouds.22 mph69%30.15 "HgN/A
6:00 PM73 °FPartly cloudy.24 mph69%30.15 "HgN/A
Weather by CustomWeather, © 2014

See weather overviewHow to use our weather pages